Dewpoint
44 43 43 44 44 43 44 41 34 46 46 36 37 31 35 38 37 36 33 31 29 29 28 28 28 28 30 31 32 30 30 28 29 28 27 30 30 28 28 27 24 25 24 21
44 43 43 43 44 43 44 37 36 43 44 32 32 34 36 39 37 36 32 31 31 30 29 30 28 29 32 33 32 30 31 30 27 26 26 28 28 28 28 28 29 28 25 21
43 43 43 43 43 44 45 37 33 38 41 39 31 32 35 36 38 34 34 32 32 30 29 30 30 31 33 35 33 38 35 29 28 26 26 31 30 28 27 29 30 26 26 24
43 42 42 43 43 44 45 38 35 38 34 36 33 30 36 35 35 34 34 32 31 31 30 29 29 30 34 35 37 34 33 30 28 28 28 27 30 30 29 31 29 28 26 25
43 42 42 43 42 44 42 36 35 37 38 32 32 35 33 37 33 32 31 31 31 30 29 28 29 30 31 31 35 34 35 29 30 29 28 28 30 28 29 30 31 31 33 33
42 42 42 43 42 44 42 42 41 38 36 34 33 33 31 36 34 36 35 32 32 30 31 32 32 33 32 33 33 35 37 34 29 27 26 28 30 31 34 36 38 37 34 36
41 41 42 42 41 43 45 42 40 36 35 35 33 33 33 33 35 34 35 34 32 38 38 37 37 36 36 36 35 34 36 32 30 27 26 27 36 36 39 38 38 39 39 39
42 42 42 41 41 42 46 44 41 37 35 35 34 34 34 34 36 36 36 36 38 40 40 37 33 33 33 35 37 36 35 36 31 28 26 26 31 36 38 37 36 41 39 36
39 40 40 40 42 43 44 44 45 41 36 36 35 33 34 34 34 36 36 42 42 42 39 36 30 26 26 28 31 37 37 36 35 31 27 24 28 33 37 40 36 41 41 37
37 37 38 39 41 44 45 44 45 42 37 40 38 36 35 38 37 37 39 41 41 42 37 33 30 27 27 26 26 31 33 35 31 27 28 26 28 32 35 32 31 41 42 37
38 38 39 39 40 43 44 43 46 41 39 42 43 41 37 38 38 36 40 39 40 40 35 35 33 29 29 26 27 29 29 28 28 28 26 25 31 33 31 34 36 36 37 40
38 38 40 40 40 40 43 42 45 45 40 43 47 46 45 43 43 42 41 39 39 40 37 37 36 30 30 26 28 29 26 25 26 28 28 30 33 33 34 35 37 37 38 38
38 38 38 39 38 39 41 43 44 43 42 45 44 41 46 47 47 45 41 42 41 41 41 41 37 34 32 28 27 30 31 30 29 32 30 33 33 35 37 37 38 38 37 37
39 39 40 39 39 38 40 43 45 42 40 39 39 46 45 48 49 48 47 45 46 46 44 41 40 37 37 33 33 31 32 34 33 31 31 32 34 36 37 37 37 35 34 35
39 40 40 40 41 40 41 43 44 44 40 39 41 45 46 47 48 48 49 47 45 43 40 40 39 41 39 38 37 34 35 33 32 28 34 35 36 37 38 37 35 33 33 34
39 41 42 42 42 42 42 40 45 45 44 41 38 45 44 46 47 46 45 45 45 44 41 42 41 42 40 37 34 32 33 35 34 32 36 37 37 38 37 36 34 33 32 33
41 43 43 43 43 43 40 40 44 46 45 42 38 40 44 45 45 45 44 45 44 44 43 41 42 43 42 38 33 32 37 38 38 38 38 37 37 37 37 34 31 31 30 29
45 46 45 45 44 43 41 43 45 45 43 45 35 39 39 44 42 41 45 43 43 44 43 43 42 41 41 38 37 36 37 39 38 38 38 37 37 36 33 31 30 28 28 27
45 46 45 44 42 39 43 48 48 46 46 40 39 37 36 43 42 43 43 43 39 43 40 41 41 40 37 38 37 37 37 37 37 38 37 38 37 36 33 32 31 29 28 27
45 43 40 38 41 46 47 46 44 43 44 43 39 39 36 40 40 40 40 39 37 33 38 39 38 38 39 39 39 39 39 38 38 37 38 39 40 37 34 32 31 29 28 26
43 40 39 44 46 46 43 39 40 40 38 41 39 38 38 41 38 39 39 36 36 33 35 35 36 33 35 34 35 38 39 38 38 38 37 38 37 36 34 32 30 28 27 25
41 41 43 43 42 39 36 35 37 36 36 39 39 40 40 41 42 39 38 35 36 32 34 33 31 33 32 33 34 36 37 37 37 36 36 37 37 36 34 31 29 27 24 22
44 40 37 39 37 33 32 32 34 35 37 37 37 38 39 40 40 36 36 33 33 33 33 30 31 33 29 32 34 36 36 36 36 36 36 37 37 35 33 30 28 24 22 21
37 34 33 34 33 35 34 34 34 35 36 37 38 37 36 37 36 35 33 33 31 30 29 31 29 27 28 33 34 35 35 35 35 35 35 35 34 33 31 29 25 23 21 21
34 33 32 32 35 36 36 36 36 37 37 37 37 36 35 36 35 32 33 31 30 30 31 33 30 28 30 32 34 34 34 34 34 33 33 33 31 30 28 26 25 22 21 21
34 33 32 32 34 34 35 35 36 37 38 36 35 34 34 34 35 31 31 31 30 32 33 33 30 30 32 32 33 33 33 33 32 32 31 30 29 28 26 24 23 22 22 20
32 32 32 32 34 35 34 33 34 36 36 34 34 32 33 31 31 30 31 32 31 30 30 29 30 30 31 31 32 32 32 32 31 30 30 29 27 25 23 23 24 24 21 21
Lifted_Index
10 10 7 6 5 4 4 3 2 1 2 2 3 3 2 2 2 2 2 2 3 3 3 3 4 4 4 5 5 5 5 4 4 4 6 6 6 6 6 5 4 4 3 3
10 9 7 6 5 5 4 3 2 1 2 2 3 2 2 2 2 2 2 2 2 2 3 3 3 4 4 5 5 5 5 4 3 4 5 6 6 6 6 6 5 4 3 3
10 9 7 6 6 5 4 3 1 1 1 2 2 2 2 2 2 2 2 2 2 2 2 3 3 4 4 5 5 5 5 5 4 4 4 5 5 6 6 6 5 3 2 3
10 9 7 6 6 5 4 3 1 1 1 2 2 2 2 1 2 2 2 2 2 2 2 2 3 4 4 5 5 6 5 5 4 4 4 5 5 6 6 5 4 2 2 2
10 9 8 7 6 6 4 3 2 2 1 2 2 2 2 2 1 2 1 1 2 2 2 3 3 4 4 5 5 5 5 5 4 4 5 5 5 4 4 3 3 2 2 2
11 10 8 7 7 6 5 4 3 2 2 2 2 2 2 2 2 1 1 1 2 2 2 3 3 3 4 4 5 5 5 4 4 4 4 4 3 3 3 2 2 2 2 2
11 10 8 8 8 7 6 5 4 3 2 2 2 3 3 2 2 2 2 2 2 2 2 3 3 3 3 4 4 5 5 4 4 4 4 3 2 2 2 2 2 2 2 2
11 10 9 9 8 7 6 6 5 3 3 3 3 3 3 3 2 2 2 2 2 2 2 2 2 2 2 3 4 5 5 5 5 4 3 2 2 2 2 2 1 2 2 2
12 11 10 10 9 8 7 7 6 4 3 3 3 3 3 3 2 2 2 2 2 2 2 2 2 2 2 2 3 4 5 5 5 4 3 2 2 3 3 2 2 1 2 1
13 12 11 10 9 8 8 7 7 5 3 3 3 3 2 2 2 2 2 2 2 2 2 2 2 2 2 2 3 4 4 5 5 4 3 2 3 3 3 2 2 2 2 2
13 12 11 11 10 9 8 8 8 6 4 3 2 2 2 2 2 2 2 2 2 2 2 2 2 2 2 3 3 3 4 4 4 4 3 2 3 3 2 2 2 2 2 2
13 12 11 11 10 10 9 8 8 6 4 3 2 2 2 2 2 2 2 2 2 2 2 2 2 2 3 3 3 3 4 4 4 4 3 3 3 3 3 3 3 3 3 3
13 12 11 11 11 11 10 8 7 5 3 2 2 2 2 2 2 2 2 2 2 3 3 3 2 2 2 2 3 3 4 4 4 4 3 3 3 3 3 3 3 3 3 3
12 11 11 11 11 11 10 8 6 5 3 2 2 2 2 2 2 2 2 2 3 3 3 3 2 2 2 2 2 3 3 3 3 3 4 3 3 3 3 3 3 3 2 2
12 11 10 10 11 11 10 8 6 5 3 2 2 2 2 2 2 2 3 3 3 3 3 2 2 1 1 2 2 3 3 3 3 3 3 3 3 2 2 2 3 2 2 2
11 10 10 10 10 10 8 6 5 5 3 2 2 2 2 2 3 3 3 3 3 3 2 2 1 1 1 2 2 3 3 3 3 3 3 3 3 2 2 2 2 2 2 2
10 9 9 9 9 9 7 5 4 4 3 3 2 2 2 3 3 3 4 4 3 3 2 1 1 1 1 2 3 3 3 3 3 3 3 3 3 3 3 3 3 3 2 2
8 8 8 9 8 7 6 4 4 4 3 3 2 2 3 3 3 3 4 4 3 2 2 2 2 2 2 2 3 3 3 3 3 3 3 3 3 3 3 3 3 2 2 2
7 7 7 8 7 6 5 4 4 3 3 2 2 3 3 3 3 3 3 3 3 2 2 2 2 2 2 3 3 4 4 4 4 4 3 3 3 3 3 3 3 3 3 3
7 7 6 6 6 5 4 3 3 3 3 2 3 3 3 3 4 3 3 3 3 2 3 3 3 2 3 4 4 4 4 4 4 3 3 3 3 2 3 3 3 3 3 3
6 6 6 5 5 4 3 3 3 3 3 3 3 3 4 4 4 4 3 3 2 2 3 3 3 3 4 4 4 4 4 3 3 3 3 2 3 3 3 3 3 4 4 4
6 5 5 4 4 3 3 3 3 3 3 3 3 3 4 4 4 4 3 3 2 2 3 3 3 4 5 5 5 4 3 3 3 3 3 3 3 3 3 3 3 4 4 4
5 5 4 4 3 3 3 3 3 3 3 3 3 3 4 4 4 3 3 2 2 3 3 3 4 5 6 6 5 4 4 4 4 3 3 3 3 4 4 4 4 4 4 5
4 4 4 4 4 4 3 3 3 4 4 4 4 3 3 3 3 2 2 2 2 2 3 4 5 6 6 6 5 4 4 4 4 3 3 3 3 3 4 4 4 4 4 5
4 4 4 4 4 4 4 4 4 4 5 4 4 3 3 3 3 2 2 1 2 2 3 4 5 5 6 6 5 5 4 4 3 3 3 3 3 3 3 4 4 4 5 6
4 4 4 4 4 4 4 4 4 4 4 4 4 3 3 3 3 2 2 2 2 3 3 4 5 5 6 6 6 5 5 4 3 3 3 3 3 3 3 3 4 5 6 7
5 4 4 4 4 3 3 3 4 4 4 3 3 3 3 3 3 2 2 2 2 3 4 4 5 5 5 6 6 6 5 4 3 3 3 3 3 3 3 4 4 6 7 8